SWA4037 KCMH-KSTL

Flight info

Callsign SWA4037
Flight time 1h 5m
Altitude 34000
Route PKACZ TARRY DQN VHP AARCH2
Aircraft B738/M-SDE2E3FGHIRWXY/LB1

Departure

Time 2026-04-27 03:29
Airport John Glenn Columbus International Airport (KCMH)

Arrival

Time 2026-04-27 04:34
Airport St. Louis Lambert International Airport (KSTL)
Time Latitude Longitude Altitude Speed Heading
2026-04-27 03:07 39.99644 -82.88505 824 ft 0 kts
2026-04-27 03:19 39.99635 -82.88506 824 ft 4 kts
2026-04-27 03:20 39.99610 -82.88501 822 ft 4 kts 331°
2026-04-27 03:20 39.99592 -82.88479 824 ft 4 kts 287°
2026-04-27 03:20 39.99589 -82.88463 824 ft 1 kts 274°
2026-04-27 03:20 39.99589 -82.88462 824 ft 0 kts 274°
2026-04-27 03:23 39.99589 -82.88469 824 ft 3 kts 274°
2026-04-27 03:23 39.99592 -82.88527 824 ft 10 kts 274°
2026-04-27 03:24 39.99599 -82.88655 820 ft 18 kts 274°
2026-04-27 03:24 39.99610 -82.88831 824 ft 20 kts 273°
2026-04-27 03:24 39.99553 -82.88920 824 ft 13 kts 242°
2026-04-27 03:24 39.99548 -82.89032 824 ft 12 kts 274°
2026-04-27 03:25 39.99555 -82.89143 819 ft 12 kts 274°
2026-04-27 03:25 39.99563 -82.89258 824 ft 13 kts 274°
2026-04-27 03:25 39.99570 -82.89384 824 ft 15 kts 274°
2026-04-27 03:25 39.99577 -82.89521 824 ft 16 kts 273°
2026-04-27 03:26 39.99584 -82.89672 824 ft 17 kts 275°
2026-04-27 03:26 39.99594 -82.89837 824 ft 19 kts 274°
2026-04-27 03:26 39.99604 -82.90012 824 ft 20 kts 274°
2026-04-27 03:26 39.99615 -82.90203 824 ft 21 kts 274°
2026-04-27 03:27 39.99627 -82.90401 824 ft 23 kts 273°
2026-04-27 03:27 39.99639 -82.90609 822 ft 23 kts 274°
2026-04-27 03:27 39.99648 -82.90816 824 ft 19 kts 272°
2026-04-27 03:27 39.99557 -82.90883 824 ft 16 kts 186°
2026-04-27 03:28 39.99447 -82.90897 824 ft 16 kts 185°
2026-04-27 03:28 39.99362 -82.90838 824 ft 15 kts 107°
2026-04-27 03:28 39.99350 -82.90643 824 ft 45 kts 94°
2026-04-27 03:28 39.99308 -82.89895 822 ft 118 kts 94°
2026-04-27 03:29 39.99233 -82.88565 934 ft 167 kts 94°
2026-04-27 03:29 39.99158 -82.87071 1813 ft 162 kts 92°
2026-04-27 03:29 39.99078 -82.85577 2424 ft 174 kts 94°
2026-04-27 03:29 39.98969 -82.83875 2686 ft 201 kts 93°
2026-04-27 03:30 39.98830 -82.81971 2982 ft 218 kts 94°
2026-04-27 03:30 39.98690 -82.79987 3542 ft 222 kts 94°
2026-04-27 03:30 39.98592 -82.77932 3976 ft 235 kts 89°
2026-04-27 03:30 39.99055 -82.75864 4419 ft 251 kts 59°
2026-04-27 03:31 40.00333 -82.74266 4957 ft 261 kts 33°
2026-04-27 03:31 40.02077 -82.73565 4987 ft 269 kts
2026-04-27 03:31 40.03932 -82.74078 5448 ft 281 kts 335°
2026-04-27 03:31 40.05425 -82.75708 6318 ft 284 kts 308°
2026-04-27 03:32 40.06330 -82.77989 7362 ft 285 kts 294°
2026-04-27 03:32 40.07075 -82.80408 8308 ft 289 kts 293°
2026-04-27 03:32 40.07799 -82.82868 9252 ft 291 kts 293°
2026-04-27 03:32 40.08522 -82.85349 10211 ft 293 kts 292°
2026-04-27 03:33 40.09273 -82.87907 10752 ft 313 kts 292°
2026-04-27 03:33 40.10094 -82.90666 10966 ft 339 kts 292°
2026-04-27 03:33 40.10749 -82.93716 11326 ft 359 kts 277°
2026-04-27 03:33 40.10638 -82.97000 12099 ft 364 kts 261°
2026-04-27 03:34 40.10169 -83.00249 13002 ft 365 kts 260°
2026-04-27 03:34 40.09683 -83.03513 13826 ft 367 kts 260°
2026-04-27 03:34 40.09197 -83.06804 14605 ft 370 kts 260°
2026-04-27 03:34 40.08716 -83.10121 15379 ft 374 kts 261°
2026-04-27 03:35 40.08241 -83.13466 16141 ft 376 kts 261°
2026-04-27 03:35 40.07769 -83.16837 16873 ft 379 kts 261°
2026-04-27 03:35 40.07298 -83.20229 17598 ft 381 kts 261°
2026-04-27 03:35 40.06827 -83.23645 18278 ft 384 kts 261°
2026-04-27 03:36 40.06353 -83.27086 18963 ft 387 kts 261°
2026-04-27 03:36 40.05876 -83.30552 19570 ft 391 kts 261°
2026-04-27 03:36 40.05393 -83.34064 20150 ft 395 kts 261°
2026-04-27 03:36 40.04903 -83.37606 20729 ft 398 kts 261°
2026-04-27 03:37 40.04409 -83.41182 21293 ft 402 kts 261°
2026-04-27 03:37 40.03909 -83.44779 21848 ft 405 kts 261°
2026-04-27 03:37 40.03404 -83.48413 22357 ft 409 kts 261°
2026-04-27 03:37 40.02894 -83.52074 22851 ft 412 kts 261°
2026-04-27 03:38 40.02377 -83.55767 23358 ft 415 kts 261°
2026-04-27 03:38 40.01858 -83.59477 23864 ft 417 kts 261°
2026-04-27 03:38 40.01338 -83.63184 24317 ft 421 kts 261°
2026-04-27 03:38 40.00808 -83.66953 24776 ft 424 kts 261°
2026-04-27 03:39 40.00273 -83.70748 25228 ft 426 kts 261°
2026-04-27 03:39 39.99734 -83.74558 25683 ft 428 kts 261°
2026-04-27 03:39 39.99191 -83.78385 26104 ft 431 kts 261°
2026-04-27 03:39 39.98643 -83.82235 26509 ft 433 kts 261°
2026-04-27 03:40 39.98091 -83.86112 26905 ft 436 kts 261°
2026-04-27 03:40 39.97535 -83.90007 27282 ft 438 kts 261°
2026-04-27 03:40 39.96976 -83.93912 27664 ft 440 kts 262°
2026-04-27 03:40 39.96412 -83.97847 28012 ft 442 kts 262°
2026-04-27 03:41 39.95845 -84.01791 28358 ft 444 kts 262°
2026-04-27 03:41 39.95272 -84.05758 28693 ft 446 kts 262°
2026-04-27 03:41 39.94697 -84.09728 29088 ft 447 kts 262°
2026-04-27 03:41 39.94120 -84.13698 29574 ft 444 kts 262°
2026-04-27 03:42 39.93547 -84.17634 30097 ft 441 kts 262°
2026-04-27 03:42 39.92974 -84.21557 30572 ft 439 kts 263°
2026-04-27 03:42 39.92403 -84.25459 30976 ft 439 kts 263°
2026-04-27 03:42 39.91831 -84.29364 31354 ft 439 kts 263°
2026-04-27 03:43 39.91258 -84.33269 31766 ft 438 kts 263°
2026-04-27 03:43 39.90686 -84.37147 32193 ft 436 kts 263°
2026-04-27 03:43 39.90114 -84.41018 32606 ft 434 kts 263°
2026-04-27 03:43 39.89543 -84.44874 32985 ft 433 kts 263°
2026-04-27 03:44 39.88974 -84.48721 33349 ft 432 kts 263°
2026-04-27 03:44 39.88403 -84.52558 33745 ft 430 kts 264°
2026-04-27 03:44 39.87833 -84.56377 34100 ft 430 kts 264°
2026-04-27 03:45 39.86686 -84.64081 34137 ft 435 kts 264°
2026-04-27 03:45 39.85531 -84.71760 34118 ft 429 kts 264°
2026-04-27 03:46 39.84385 -84.79344 34136 ft 426 kts 264°
2026-04-27 03:46 39.83237 -84.86911 34130 ft 426 kts 264°
2026-04-27 03:47 39.82095 -84.94417 34126 ft 425 kts 264°
2026-04-27 03:47 39.80947 -85.01926 34133 ft 425 kts 263°
2026-04-27 03:48 39.79790 -85.09463 34126 ft 425 kts 263°
2026-04-27 03:48 39.78625 -85.17007 34120 ft 426 kts 263°
2026-04-27 03:49 39.77455 -85.24548 34118 ft 426 kts 263°
2026-04-27 03:49 39.76279 -85.32096 34110 ft 426 kts 263°
2026-04-27 03:50 39.75099 -85.39633 34110 ft 426 kts 263°
2026-04-27 03:50 39.73914 -85.47178 34111 ft 426 kts 263°
2026-04-27 03:51 39.72726 -85.54699 34111 ft 426 kts 263°
2026-04-27 03:51 39.71532 -85.62230 34110 ft 425 kts 263°
2026-04-27 03:52 39.70334 -85.69743 34112 ft 425 kts 263°
2026-04-27 03:52 39.69130 -85.77264 34103 ft 425 kts 263°
2026-04-27 03:53 39.67925 -85.84764 34099 ft 424 kts 263°
2026-04-27 03:53 39.66718 -85.92250 34103 ft 423 kts 263°
2026-04-27 03:54 39.65505 -85.99726 34111 ft 423 kts 263°
2026-04-27 03:54 39.64290 -86.07196 34113 ft 423 kts 263°
2026-04-27 03:55 39.63080 -86.14601 34112 ft 423 kts 263°
2026-04-27 03:55 39.61855 -86.22061 34111 ft 422 kts 263°
2026-04-27 03:56 39.60627 -86.29508 34105 ft 422 kts 262°
2026-04-27 03:56 39.59394 -86.36953 34103 ft 423 kts 262°
2026-04-27 03:57 39.58156 -86.44402 34101 ft 422 kts 262°
2026-04-27 03:57 39.57123 -86.50593 34102 ft 423 kts 262°
2026-04-27 03:58 39.55866 -86.58093 34095 ft 423 kts 262°
2026-04-27 03:58 39.54621 -86.65495 34094 ft 423 kts 262°
2026-04-27 03:59 39.53360 -86.72950 34096 ft 423 kts 262°
2026-04-27 03:59 39.52097 -86.80395 34090 ft 423 kts 262°
2026-04-27 04:00 39.50829 -86.87840 34096 ft 423 kts 262°
2026-04-27 04:00 39.49556 -86.95280 34096 ft 423 kts 262°
2026-04-27 04:01 39.48279 -87.02715 34086 ft 423 kts 261°
2026-04-27 04:01 39.46998 -87.10144 34076 ft 422 kts 261°
2026-04-27 04:02 39.45715 -87.17558 34071 ft 422 kts 261°
2026-04-27 04:02 39.44427 -87.24963 34065 ft 422 kts 261°
2026-04-27 04:03 39.43138 -87.32351 34064 ft 421 kts 261°
2026-04-27 04:03 39.41856 -87.39672 34067 ft 420 kts 261°
2026-04-27 04:04 39.40561 -87.47026 34063 ft 419 kts 261°
2026-04-27 04:04 39.39263 -87.54372 34058 ft 419 kts 261°
2026-04-27 04:05 39.37960 -87.61714 34056 ft 419 kts 261°
2026-04-27 04:05 39.36655 -87.69049 34048 ft 419 kts 261°
2026-04-27 04:06 39.35349 -87.76366 34029 ft 419 kts 260°
2026-04-27 04:06 39.34039 -87.83664 34029 ft 419 kts 260°
2026-04-27 04:07 39.32057 -87.94654 34025 ft 419 kts 260°
2026-04-27 04:07 39.30731 -88.01976 34023 ft 419 kts 260°
2026-04-27 04:08 39.29396 -88.09301 34022 ft 419 kts 260°
2026-04-27 04:08 39.28062 -88.16614 34019 ft 418 kts 260°
2026-04-27 04:09 39.26727 -88.23903 34017 ft 417 kts 260°
2026-04-27 04:09 39.25391 -88.31177 34023 ft 416 kts 259°
2026-04-27 04:10 39.24050 -88.38438 34016 ft 416 kts 259°
2026-04-27 04:10 39.22712 -88.45646 33911 ft 404 kts 259°
2026-04-27 04:11 39.22059 -88.49150 33317 ft 403 kts 259°
2026-04-27 04:11 39.21403 -88.52682 32476 ft 408 kts 259°
2026-04-27 04:11 39.20735 -88.56278 31480 ft 417 kts 259°
2026-04-27 04:11 39.20054 -88.59930 30606 ft 422 kts 258°
2026-04-27 04:12 39.19367 -88.63599 30027 ft 420 kts 258°
2026-04-27 04:12 39.18683 -88.67243 29457 ft 416 kts 258°
2026-04-27 04:12 39.18004 -88.70853 28921 ft 412 kts 258°
2026-04-27 04:12 39.17339 -88.74383 28396 ft 408 kts 258°
2026-04-27 04:13 39.16671 -88.77921 27861 ft 405 kts 258°
2026-04-27 04:13 39.15986 -88.81545 27320 ft 401 kts 257°
2026-04-27 04:13 39.15348 -88.84915 26815 ft 398 kts 257°
2026-04-27 04:13 39.14694 -88.88365 26298 ft 395 kts 257°
2026-04-27 04:14 39.14045 -88.91784 25789 ft 392 kts 257°
2026-04-27 04:14 39.13399 -88.95181 25269 ft 389 kts 257°
2026-04-27 04:14 39.12757 -88.98550 24775 ft 386 kts 257°
2026-04-27 04:14 39.12118 -89.01894 24266 ft 383 kts 257°
2026-04-27 04:15 39.11483 -89.05214 23765 ft 382 kts 257°
2026-04-27 04:15 39.10847 -89.08530 23258 ft 381 kts 257°
2026-04-27 04:15 39.10215 -89.11830 22762 ft 379 kts 257°
2026-04-27 04:15 39.09587 -89.15099 22477 ft 371 kts 257°
2026-04-27 04:16 39.08948 -89.18309 21841 ft 375 kts 255°
2026-04-27 04:16 39.08237 -89.21534 21322 ft 374 kts 255°
2026-04-27 04:16 39.07506 -89.24739 20831 ft 371 kts 254°
2026-04-27 04:16 39.06778 -89.27918 20354 ft 368 kts 254°
2026-04-27 04:17 39.06059 -89.31066 19895 ft 365 kts 254°
2026-04-27 04:17 39.05349 -89.34191 19434 ft 362 kts 254°
2026-04-27 04:17 39.04649 -89.37286 18982 ft 359 kts 254°
2026-04-27 04:17 39.03955 -89.40358 18528 ft 356 kts 254°
2026-04-27 04:18 39.03265 -89.43406 18087 ft 353 kts 254°
2026-04-27 04:18 39.02581 -89.46427 17637 ft 351 kts 254°
2026-04-27 04:18 39.01901 -89.49425 17206 ft 348 kts 254°
2026-04-27 04:18 39.01227 -89.52401 16774 ft 345 kts 253°
2026-04-27 04:19 39.00558 -89.55354 16340 ft 343 kts 253°
2026-04-27 04:19 38.99885 -89.58316 15905 ft 341 kts 253°
2026-04-27 04:19 38.99164 -89.61180 15451 ft 339 kts 249°
2026-04-27 04:19 38.98265 -89.63975 15011 ft 336 kts 246°
2026-04-27 04:20 38.97359 -89.66735 14578 ft 335 kts 247°
2026-04-27 04:20 38.96469 -89.69499 14152 ft 334 kts 247°
2026-04-27 04:20 38.95587 -89.72263 13717 ft 333 kts 247°
2026-04-27 04:20 38.94716 -89.75018 13290 ft 332 kts 247°
2026-04-27 04:21 38.93858 -89.77751 12865 ft 329 kts 247°
2026-04-27 04:21 38.93003 -89.80463 12448 ft 327 kts 247°
2026-04-27 04:21 38.92153 -89.83159 12031 ft 325 kts 247°
2026-04-27 04:21 38.91306 -89.85844 11616 ft 323 kts 247°
2026-04-27 04:22 38.90463 -89.88512 11204 ft 322 kts 246°
2026-04-27 04:22 38.89619 -89.91171 10787 ft 321 kts 246°
2026-04-27 04:22 38.88784 -89.93801 10550 ft 313 kts 246°
2026-04-27 04:22 38.87975 -89.96354 10401 ft 305 kts 246°
2026-04-27 04:23 38.87190 -89.98831 10263 ft 296 kts 246°
2026-04-27 04:23 38.86424 -90.01242 10131 ft 287 kts 245°
2026-04-27 04:23 38.85678 -90.03579 10017 ft 279 kts 245°
2026-04-27 04:23 38.84948 -90.05857 9792 ft 275 kts 245°
2026-04-27 04:24 38.84220 -90.08118 9508 ft 273 kts 245°
2026-04-27 04:24 38.83497 -90.10365 9229 ft 272 kts 245°
2026-04-27 04:24 38.82779 -90.12602 8941 ft 270 kts 244°
2026-04-27 04:24 38.82064 -90.14823 8649 ft 269 kts 244°
2026-04-27 04:25 38.81353 -90.17034 8353 ft 268 kts 243°
2026-04-27 04:25 38.80638 -90.19219 8112 ft 264 kts 244°
2026-04-27 04:25 38.80212 -90.21467 7977 ft 262 kts 265°
2026-04-27 04:25 38.80527 -90.23774 7727 ft 267 kts 289°
2026-04-27 04:26 38.81411 -90.25877 7493 ft 268 kts 297°
2026-04-27 04:26 38.82369 -90.27924 7233 ft 267 kts 297°
2026-04-27 04:26 38.83321 -90.29963 6981 ft 267 kts 297°
2026-04-27 04:26 38.84270 -90.32007 6704 ft 266 kts 296°
2026-04-27 04:27 38.85212 -90.34053 6424 ft 266 kts 296°
2026-04-27 04:27 38.86152 -90.36102 6153 ft 266 kts 296°
2026-04-27 04:27 38.87084 -90.38142 5880 ft 266 kts 296°
2026-04-27 04:27 38.88016 -90.40188 5606 ft 265 kts 296°
2026-04-27 04:28 38.88949 -90.42234 5320 ft 266 kts 296°
2026-04-27 04:28 38.89887 -90.44291 5045 ft 266 kts 297°
2026-04-27 04:28 38.90711 -90.46361 4939 ft 255 kts 281°
2026-04-27 04:28 38.90779 -90.48541 4867 ft 233 kts 249°
2026-04-27 04:29 38.90039 -90.50270 4715 ft 216 kts 222°
2026-04-27 04:29 38.88996 -90.51652 4443 ft 216 kts 219°
2026-04-27 04:29 38.87927 -90.53013 4178 ft 217 kts 218°
2026-04-27 04:29 38.86850 -90.54367 3923 ft 216 kts 214°
2026-04-27 04:30 38.86024 -90.55012 3733 ft 206 kts 191°
2026-04-27 04:30 38.84276 -90.54756 3362 ft 192 kts 140°
2026-04-27 04:30 38.83465 -90.53403 3088 ft 192 kts 124°
2026-04-27 04:30 38.82737 -90.51968 3013 ft 193 kts 124°
2026-04-27 04:31 38.82018 -90.50537 2942 ft 187 kts 124°
2026-04-27 04:31 38.81349 -90.49182 2762 ft 178 kts 123°
2026-04-27 04:31 38.80709 -90.47874 2554 ft 172 kts 124°
2026-04-27 04:31 38.80082 -90.46604 2342 ft 164 kts 124°
2026-04-27 04:32 38.79475 -90.45367 2135 ft 160 kts 124°
2026-04-27 04:32 38.78896 -90.44192 1923 ft 152 kts 124°
2026-04-27 04:32 38.78341 -90.43065 1734 ft 150 kts 123°
2026-04-27 04:32 38.77783 -90.41929 1529 ft 153 kts 123°
2026-04-27 04:33 38.77218 -90.40782 1331 ft 152 kts 124°
2026-04-27 04:33 38.76653 -90.39633 1121 ft 153 kts 123°
2026-04-27 04:33 38.76100 -90.38479 935 ft 150 kts 123°
2026-04-27 04:33 38.75548 -90.37368 733 ft 147 kts 124°
2026-04-27 04:34 38.74996 -90.36258 571 ft 143 kts 123°
2026-04-27 04:34 38.74525 -90.35304 583 ft 108 kts 122°
2026-04-27 04:34 38.74265 -90.34776 590 ft 25 kts 122°
2026-04-27 04:34 38.74171 -90.34758 594 ft 14 kts 211°
2026-04-27 04:35 38.74115 -90.34802 594 ft 10 kts 212°
2026-04-27 04:35 38.74045 -90.34860 592 ft 15 kts 212°
2026-04-27 04:35 38.73937 -90.34944 591 ft 21 kts 212°
2026-04-27 04:35 38.73846 -90.35040 592 ft 15 kts 262°
2026-04-27 04:36 38.73895 -90.35168 589 ft 19 kts 302°
2026-04-27 04:36 38.73973 -90.35325 581 ft 20 kts 302°
2026-04-27 04:36 38.74012 -90.35425 579 ft 9 kts 263°
2026-04-27 04:36 38.73991 -90.35531 576 ft 15 kts 271°
2026-04-27 04:37 38.73938 -90.35652 577 ft 16 kts 210°
2026-04-27 04:37 38.73861 -90.35666 572 ft 5 kts 187°
2026-04-27 04:37 38.73846 -90.35669 574 ft 0 kts 187°